Weather History for YPXM - February, 2013

Change the Weather History Date:

Wednesday, February 20, 2013

  Actual Average Record
Temperature  
Mean Temperature 77 °F -  
Max Temperature 82 °F 79 °F - (-1)
Min Temperature 72 °F 71 °F - (-1)
Cooling Degree Days 12    
Growing Degree Days 27 (Base 50)    
Moisture  
Dew Point 75 °F    
Average Humidity 86    
Maximum Humidity 94    
Minimum Humidity 73    
Precipitation  
Precipitation 0.12 in - - ()
Sea Level Pressure  
Sea Level Pressure 29.68 in    
Wind  
Wind Speed 8 mph ()    
Max Wind Speed 14 mph    
Max Gust Speed 24 mph    
Visibility 6.1 miles    
Events Rain    
Averages and records for this station are not official NWS values.
T = Trace of Precipitation, MM = Missing Value Source: Averaged Metar Reports

Daily Weather History Graph

Daily Weather History Graph

Search for Another Location

Airport or City:

Trip Planner

Search our weather history database for the weather conditions in past years. The results will help you decide how hot, cold, wet, or windy it might be!

Date:

Astronomy

Feb. 20, 2013 Rise Set
Actual Time 5:59 AM CXT 6:22 PM CXT
Civil Twilight 5:37 AM CXT 6:43 PM CXT
Nautical Twilight 5:12 AM CXT 7:08 PM CXT
Astronomical Twilight 4:47 AM CXT 7:34 PM CXT
Moon 2:03 PM CXT (2/20) 1:06 AM CXT (2/20)
Length of Visible Light 13h 05m
Length of Day
12h 23m
Waxing Gibbous, 71% of the Moon is Illuminated
Feb 20
Waxing Gibbous
Feb 26
Full
Mar 5
Last Quarter
Mar 12
New
Mar 20
First Quarter

Hourly Weather History & Observations

Time (CXT) Temp. Heat Index Dew Point Humidity Pressure Visibility Wind Dir Wind Speed Gust Speed Precip Events Conditions
12:00 AM 79 °F - 74 °F 82% 29.68 in - WNW 8.1 mph - -   Overcast
12:00 AM 78.8 °F - 75.2 °F 89% 29.71 in 6.2 mi WNW 8.1 mph - N/A   Mostly Cloudy
12:18 AM 78.8 °F - 75.2 °F 89% 29.71 in 6.2 mi WNW 6.9 mph - N/A   Mostly Cloudy
1:00 AM 79 °F - 75 °F 83% 29.67 in - WNW 8.1 mph - -  
1:00 AM 78.8 °F - 75.2 °F 89% 29.71 in 6.2 mi WNW 8.1 mph - N/A   Scattered Clouds
1:34 AM 78.8 °F - 77.0 °F 94% 29.68 in 6.2 mi NW 6.9 mph - N/A Rain Light Rain Showers
2:00 AM 78.8 °F - 77.0 °F 94% 29.68 in 6.2 mi NW 6.9 mph - N/A Rain Light Rain Showers
2:30 AM 77.0 °F - 75.2 °F 94% 29.68 in 6.2 mi NW 9.2 mph - N/A   Scattered Clouds
2:51 AM 77.0 °F - 75.2 °F 94% 29.68 in 6.2 mi NW 8.1 mph - N/A   Scattered Clouds
3:00 AM 77 °F - 74 °F 90% 29.63 in - NW 8.1 mph - -  
3:00 AM 77.0 °F - 75.2 °F 94% 29.68 in 6.2 mi NW 8.1 mph - N/A Rain Light Rain
4:00 AM 78 °F - 75 °F 88% 29.63 in - NW 8.1 mph - -  
4:00 AM 78.8 °F - 75.2 °F 89% 29.65 in 6.2 mi NW 8.1 mph - N/A   Mostly Cloudy
5:00 AM 77.0 °F - 73.4 °F 89% 29.68 in 6.2 mi NW 9.2 mph - N/A Rain Light Rain
5:03 AM 77.0 °F - 73.4 °F 89% 29.68 in 6.2 mi NW 9.2 mph - N/A Rain Light Rain
5:52 AM 78.8 °F - 75.2 °F 89% 29.68 in - NW 6.9 mph - N/A   Mostly Cloudy
6:00 AM 78 °F - 75 °F 87% 29.65 in - NW 8.1 mph - -   Overcast
6:00 AM 78.8 °F - 75.2 °F 89% 29.68 in - NW 8.1 mph - N/A   Mostly Cloudy
7:27 AM 78.8 °F - 75.2 °F 89% 29.71 in 6.2 mi NW 10.4 mph - N/A   Mostly Cloudy
7:30 AM 78.8 °F - 75.2 °F 89% 29.71 in 6.2 mi NW 9.2 mph - N/A   Overcast
8:00 AM 78.8 °F - 75.2 °F 89% 29.74 in 6.2 mi NW 9.2 mph - N/A   Overcast
8:15 AM 78.8 °F - 75.2 °F 89% 29.74 in 6.2 mi NW 9.2 mph - N/A   Mostly Cloudy
9:00 AM 79 °F - 75 °F 83% 29.70 in - NW 10.4 mph - -   Overcast
9:00 AM 78.8 °F - 75.2 °F 89% 29.74 in 6.2 mi NW 10.4 mph - N/A   Overcast
10:00 AM 78 °F - 75 °F 87% 29.70 in - NW 10.4 mph - -  
10:00 AM 78.8 °F - 75.2 °F 89% 29.74 in 6.2 mi NW 10.4 mph - N/A   Overcast
11:00 AM 78.8 °F - 75.2 °F 89% 29.74 in 6.2 mi NW 11.5 mph - N/A   Overcast
12:00 PM 81 °F - 75 °F 78% 29.68 in - NW 10.4 mph - -   Overcast
12:00 PM 80.6 °F 86.2 °F 75.2 °F 84% 29.71 in 6.2 mi NW 10.4 mph - N/A   Overcast
12:31 PM 82.4 °F 88.2 °F 73.4 °F 74% 29.71 in 6.2 mi NW 10.4 mph 21.9 mph N/A   Mostly Cloudy
12:57 PM 80.6 °F 86.2 °F 75.2 °F 84% 29.68 in 6.2 mi NW 9.2 mph - N/A   Overcast
1:00 PM 79 °F - 74 °F 82% 29.66 in - NW 9.2 mph - -  
1:00 PM 78.8 °F - 75.2 °F 89% 29.68 in 6.2 mi NW 9.2 mph - N/A   Overcast
1:20 PM 80.6 °F 85.4 °F 73.4 °F 79% 29.68 in 6.2 mi WNW 11.5 mph - N/A   Mostly Cloudy
2:00 PM 80.6 °F 85.4 °F 73.4 °F 79% 29.65 in 6.2 mi WNW 12.7 mph - N/A   Unknown
3:00 PM 79 °F - 73 °F 78% 29.62 in - NW 13.8 mph - -   Overcast
3:00 PM 78.8 °F - 73.4 °F 83% 29.65 in 6.2 mi NW 13.8 mph - N/A Rain Light Rain
4:00 PM 80 °F - 73 °F 74% 29.61 in - NW 12.7 mph - -  
4:00 PM 78.8 °F - 73.4 °F 83% 29.65 in 6.2 mi NW 12.7 mph - N/A   Scattered Clouds
4:55 PM 77.0 °F - 73.4 °F 89% 29.65 in 4.3 mi West 13.8 mph - N/A Rain Rain Showers
5:00 PM 77.0 °F - 75.2 °F 94% 29.65 in 5.6 mi West 10.4 mph 24.2 mph N/A Rain Light Rain Showers
5:04 PM 77.0 °F - 75.2 °F 94% 29.65 in 5.6 mi WNW 9.2 mph - N/A Rain Light Rain Showers
5:25 PM 77.0 °F - 75.2 °F 94% 29.65 in 6.2 mi WNW 9.2 mph - N/A   Scattered Clouds
6:00 PM 79 °F - 75 °F 83% 29.64 in - WNW 10.4 mph - -   Overcast
6:00 PM 78.8 °F - 75.2 °F 89% 29.68 in 6.2 mi WNW 10.4 mph 21.9 mph N/A   Overcast
7:00 PM 79 °F - 73 °F 77% 29.66 in - WNW 12.7 mph - -  
7:00 PM 78.8 °F - 73.4 °F 83% 29.71 in 6.2 mi WNW 12.7 mph - N/A   Scattered Clouds
8:00 PM 78.8 °F - 73.4 °F 83% 29.71 in 6.2 mi WNW 11.5 mph - N/A   Scattered Clouds
9:00 PM 79 °F - 72 °F 73% 29.70 in - WNW 8.1 mph - -  
9:00 PM 78.8 °F - 71.6 °F 78% 29.74 in 6.2 mi WNW 8.1 mph - N/A   Scattered Clouds
10:00 PM 79 °F - 74 °F 79% 29.71 in - NW 8.1 mph - -  
10:00 PM 78.8 °F - 73.4 °F 83% 29.74 in 6.2 mi NW 8.1 mph - N/A   Mostly Cloudy
11:00 PM 78.8 °F - 75.2 °F 89% 29.74 in 6.2 mi NW 8.1 mph - N/A   Mostly Cloudy